Location: Long Barn
(38.0930°N, 120.1344°W)
Time: 19:34:54
(UTC+00:00)

Envisat - Visible Passes

Search period start: 06 October 2024 00:00
Search period end: 16 October 2024 00:00
Orbit: 762 x 764 km, 98.3° (Epoch: 06 October)

Date Brightness Start Highest point End Pass type
(mag) Time Alt. Az. Time Alt. Az. Time Alt. Az.
06 Oct 5.0 10:57:19 10° NNE 10:59:07 22° NNE 10:59:07 22° NNE visible
06 Oct 5.0 12:38:12 10° NNW 12:39:16 12° NW 12:39:16 12° NW visible
07 Oct 5.8 10:20:25 10° NE 10:21:05 13° NE 10:21:05 13° NE visible
07 Oct 4.6 11:59:16 10° N 12:01:13 20° NNW 12:01:13 20° NNW visible
08 Oct 4.8 11:21:19 10° N 11:23:10 23° N 11:23:10 23° N visible
09 Oct 5.4 10:43:58 10° NNE 10:45:06 17° NNE 10:45:06 17° NNE visible
09 Oct 4.9 12:24:01 10° NNW 12:25:15 14° NW 12:25:15 14° NW visible
10 Oct 4.8 11:45:33 10° N 11:47:12 20° NNW 11:47:12 20° NNW visible
11 Oct 5.2 11:07:49 10° NNE 11:09:09 18° NNE 11:09:09 18° NNE visible
12 Oct 5.8 10:30:41 10° NNE 10:31:05 12° NNE 10:31:05 12° NNE visible
12 Oct 5.0 12:10:04 10° NNW 12:11:13 15° NNW 12:11:13 15° NNW visible
13 Oct 5.0 11:31:54 10° N 11:33:10 18° N 11:33:10 18° N visible
14 Oct 5.5 10:54:23 10° NNE 10:55:06 14° NNE 10:55:06 14° NNE visible
14 Oct 5.2 12:35:04 10° NNW 12:35:14 10° NNW 12:35:14 10° NNW visible
15 Oct 5.1 11:56:14 10° N 11:57:10 15° NNW 11:57:10 15° NNW visible
